Tracking 35334 objects as of 13-Sep-2026
HD Live streaming from Space Station
objects crossing your sky now

FREGAT DEB


FREGAT DEB is no longer on orbit


NORAD ID: 46517
Int'l Code: 2011-037LV
Launch date: July 18, 2011
Source: Commonwealth of Independent States (former USSR) (CIS)
Launch site: TYURATAM MISSILE AND SPACE COMPLEX (TTMTR)
Decay date: 2025-05-08

Note: This is SATELLITE DEBRIS
Your satellite tracking list
Your tracking list is empty




NASA's NSSDC Master Catalog

Two Line Element Set (TLE):
1 46517U 11037LV  22040.25602562  .02372613  00000-0  14222+0 0  9995
2 46517  51.4042 304.3595 2254430  39.1057 335.2787 10.80129550   887
Source of the keplerian elements: AFSPC